Time,TemperatureF,DewpointF,PressureIn,WindDirection,WindDirectionDegrees,WindSpeedMPH,WindSpeedGustMPH,Humidity,HourlyPrecipIn,Conditions,Clouds,dailyrainin,SoftwareType,DateUTC
2013-10-12 00:02:00,31.0,21.0,29.99,North,-999,-999.0,-999.0,67,-99.99,,,-99.99,,2013-10-12 06:02:00,
2013-10-12 00:22:00,31.0,22.0,29.99,North,-999,-999.0,-999.0,69,-99.99,,,-99.99,,2013-10-12 06:22:00,
2013-10-12 00:42:00,32.0,20.0,29.98,North,-999,-999.0,-999.0,62,-99.99,,,-99.99,,2013-10-12 06:42:00,
2013-10-12 00:52:00,32.0,20.0,29.98,North,-999,-999.0,-999.0,60,-99.99,,,-99.99,,2013-10-12 06:52:00,
2013-10-12 01:02:00,32.0,20.0,29.98,North,-999,-999.0,-999.0,60,-99.99,,,-99.99,,2013-10-12 07:02:00,
2013-10-12 02:22:00,31.0,21.0,29.99,North,-999,-999.0,-999.0,67,-99.99,,,-99.99,,2013-10-12 08:22:00,
2013-10-12 02:42:00,29.0,21.0,29.99,North,-999,-999.0,-999.0,72,-99.99,,,-99.99,,2013-10-12 08:42:00,
2013-10-12 03:11:00,28.0,20.0,30.00,North,-999,-999.0,-999.0,73,-99.99,,,-99.99,,2013-10-12 09:11:00,
2013-10-12 04:42:00,27.0,22.0,29.99,North,-999,-999.0,-999.0,80,-99.99,,,-99.99,,2013-10-12 10:42:00,
2013-10-12 05:12:00,27.0,22.0,29.99,North,-999,-999.0,-999.0,80,-99.99,,,-99.99,,2013-10-12 11:12:00,
2013-10-12 05:42:00,27.0,22.0,29.99,North,-999,-999.0,-999.0,81,-99.99,,,-99.99,,2013-10-12 11:42:00,
2013-10-12 05:52:00,27.0,22.0,29.99,North,-999,-999.0,-999.0,80,-99.99,,,-99.99,,2013-10-12 11:52:00,
2013-10-12 06:11:00,27.0,22.0,29.99,North,-999,-999.0,-999.0,81,-99.99,,,-99.99,,2013-10-12 12:11:00,
2013-10-12 06:42:00,27.0,22.0,29.99,North,-999,-999.0,-999.0,81,-99.99,,,-99.99,,2013-10-12 12:42:00,
2013-10-12 07:42:00,27.0,23.0,29.99,North,-999,-999.0,-999.0,83,-99.99,,,-99.99,,2013-10-12 13:42:00,
2013-10-12 08:52:00,27.0,23.0,30.00,North,-999,-999.0,-999.0,85,-99.99,,,-99.99,,2013-10-12 14:52:00,
2013-10-12 09:02:00,27.0,23.0,30.00,North,-999,-999.0,-999.0,85,-99.99,,,-99.99,,2013-10-12 15:02:00,
2013-10-12 09:22:00,28.0,23.0,30.00,North,-999,-999.0,-999.0,80,-99.99,,,-99.99,,2013-10-12 15:22:00,
2013-10-12 09:43:00,29.0,23.0,30.00,North,-999,-999.0,-999.0,78,-99.99,,,-99.99,,2013-10-12 15:43:00,
2013-10-12 09:53:00,29.0,23.0,30.00,North,-999,-999.0,-999.0,78,-99.99,,,-99.99,,2013-10-12 15:53:00,
2013-10-12 10:03:00,29.0,23.0,30.00,North,-999,-999.0,-999.0,78,-99.99,,,-99.99,,2013-10-12 16:03:00,
2013-10-12 10:43:00,29.0,23.0,30.00,North,-999,-999.0,-999.0,78,-99.99,,,-99.99,,2013-10-12 16:43:00,
2013-10-12 10:53:00,30.0,24.0,30.00,North,-999,-999.0,-999.0,77,-99.99,,,-99.99,,2013-10-12 16:53:00,
2013-10-12 11:13:00,31.0,24.0,30.00,North,-999,-999.0,-999.0,76,-99.99,,,-99.99,,2013-10-12 17:13:00,
2013-10-12 11:42:00,35.0,24.0,29.99,North,-999,-999.0,-999.0,65,-99.99,,,-99.99,,2013-10-12 17:42:00,
2013-10-12 12:22:00,35.0,26.0,30.00,North,-999,-999.0,-999.0,70,-99.99,,,-99.99,,2013-10-12 18:22:00,
2013-10-12 12:42:00,35.0,28.0,30.00,North,-999,-999.0,-999.0,74,-99.99,,,-99.99,,2013-10-12 18:42:00,
2013-10-12 13:11:00,33.0,29.0,30.00,North,-999,-999.0,-999.0,86,-99.99,,,-99.99,,2013-10-12 19:11:00,
2013-10-12 13:42:00,35.0,30.0,29.99,North,-999,-999.0,-999.0,83,-99.99,,,-99.99,,2013-10-12 19:42:00,
2013-10-12 13:52:00,35.0,29.0,29.98,North,-999,-999.0,-999.0,78,-99.99,,,-99.99,,2013-10-12 19:52:00,
2013-10-12 14:03:00,35.0,29.0,29.98,North,-999,-999.0,-999.0,78,-99.99,,,-99.99,,2013-10-12 20:03:00,
2013-10-12 15:43:00,38.0,31.0,29.97,North,-999,-999.0,-999.0,76,-99.99,,,-99.99,,2013-10-12 21:43:00,
2013-10-12 16:43:00,39.0,32.0,29.96,North,-999,-999.0,-999.0,75,-99.99,,,-99.99,,2013-10-12 22:43:00,
2013-10-12 18:11:00,40.0,29.0,29.95,North,-999,-999.0,-999.0,65,-99.99,,,-99.99,,2013-10-13 00:11:00,
2013-10-12 18:21:00,41.0,30.0,29.96,North,-999,-999.0,-999.0,64,-99.99,,,-99.99,,2013-10-13 00:21:00,
2013-10-12 18:42:00,41.0,29.0,29.96,North,-999,-999.0,-999.0,63,-99.99,,,-99.99,,2013-10-13 00:42:00,
2013-10-12 19:42:00,39.0,31.0,29.96,North,-999,-999.0,-999.0,74,-99.99,,,-99.99,,2013-10-13 01:42:00,
2013-10-12 21:44:00,39.0,30.0,29.98,North,-999,-999.0,-999.0,71,-99.99,,,-99.99,,2013-10-13 03:44:00,
2013-10-12 21:54:00,38.0,31.0,29.98,North,-999,-999.0,-999.0,75,-99.99,,,-99.99,,2013-10-13 03:54:00,
2013-10-12 22:43:00,37.0,30.0,29.98,North,-999,-999.0,-999.0,77,-99.99,,,-99.99,,2013-10-13 04:43:00,
2013-10-12 23:12:00,36.0,30.0,29.98,North,-999,-999.0,-999.0,78,-99.99,,,-99.99,,2013-10-13 05:12:00,
2013-10-12 23:43:00,36.0,30.0,29.98,North,-999,-999.0,-999.0,78,-99.99,,,-99.99,,2013-10-13 05:43:00,